Marshfield, WI

7:16 PM CST on November 20, 2017 (GMT -0600)
Marshfield Municipal

Weather History for KMFI - June, 2012

Change the Weather History Date:

Thursday, June 7, 2012

  Actual Average Record
Temperature  
Mean Temperature 66 °F -  
Max Temperature 80 °F 76 °F 93 °F (1988)
Min Temperature 52 °F 52 °F 34 °F (1953)
Cooling Degree Days 1    
Growing Degree Days 16 (Base 50)    
Moisture  
Dew Point 52 °F    
Average Humidity 58    
Maximum Humidity 86    
Minimum Humidity 39    
Precipitation  
Precipitation 0.00 in - - ()
Sea Level Pressure  
Sea Level Pressure 30.09 in    
Wind  
Wind Speed 3 mph (WSW)    
Max Wind Speed 8 mph    
Max Gust Speed 16 mph    
Visibility 10 miles    
Events      
Averages and records for this station are not official NWS values.
T = Trace of Precipitation, MM = Missing Value Source: NWS Daily Summary

Daily Weather History Graph

Daily Weather History Graph

Search for Another Location

Airport or City:

Trip Planner

Search our weather history database for the weather conditions in past years. The results will help you decide how hot, cold, wet, or windy it might be!

Date:

Astronomy

Jun. 07, 2012 Rise Set
Actual Time 5:15 AM CDT 8:43 PM CDT
Civil Twilight 4:39 AM CDT 9:20 PM CDT
Nautical Twilight 3:51 AM CDT 10:08 PM CDT
Astronomical Twilight 2:50 AM CDT 11:10 PM CDT
Moon 11:27 PM CDT (6/7) 8:52 AM CDT (6/7)
Length of Visible Light 16h 41m
Length of Day
15h 27m
Waning Gibbous, 86% of the Moon is Illuminated
Jun 7
Waning Gibbous
Jun 11
Last Quarter
Jun 19
New
Jun 26
First Quarter
Jul 3
Full

Hourly Weather History & Observations

Time (CDT) Temp. Heat Index Dew Point Humidity Pressure Visibility Wind Dir Wind Speed Gust Speed Precip Events Conditions
12:54 AM 55.0 °F - 46.9 °F 74% 30.11 in 10.0 mi WNW 3.5 mph - N/A   Clear
2:54 AM 54.0 °F - 46.9 °F 77% 30.12 in 10.0 mi Calm Calm - N/A   Clear
3:54 AM 53.1 °F - 46.9 °F 80% 30.12 in 10.0 mi Calm Calm - N/A   Clear
4:54 AM 52.0 °F - 48.0 °F 86% 30.12 in 10.0 mi Calm Calm - N/A   Clear
5:54 AM 53.1 °F - 48.0 °F 83% 30.14 in 9.0 mi Calm Calm - N/A   Clear
6:54 AM 59.0 °F - 51.1 °F 75% 30.15 in 10.0 mi Calm Calm - N/A   Clear
7:54 AM 64.9 °F - 52.0 °F 63% 30.14 in 10.0 mi Calm Calm - N/A   Clear
8:54 AM 71.1 °F - 50.0 °F 47% 30.14 in 10.0 mi Calm Calm - N/A   Scattered Clouds
9:54 AM 73.9 °F - 48.9 °F 41% 30.14 in 10.0 mi West 8.1 mph - N/A   Partly Cloudy
10:54 AM 75.0 °F - 50.0 °F 41% 30.14 in 10.0 mi WNW 3.5 mph - N/A   Clear
11:54 AM 77.0 °F - 52.0 °F 42% 30.13 in 10.0 mi WSW 5.8 mph - N/A   Partly Cloudy
12:54 PM 75.9 °F - 53.1 °F 45% 30.12 in 10.0 mi SW 8.1 mph - N/A   Mostly Cloudy
1:54 PM 78.1 °F - 54.0 °F 43% 30.11 in 10.0 mi Variable 6.9 mph - N/A   Partly Cloudy
2:54 PM 79.0 °F - 53.1 °F 40% 30.09 in 10.0 mi West 6.9 mph - N/A   Scattered Clouds
3:54 PM 79.0 °F - 53.1 °F 40% 30.08 in 10.0 mi Variable 6.9 mph - N/A   Partly Cloudy
4:54 PM 80.1 °F 79.9 °F 53.1 °F 39% 30.06 in 10.0 mi West 6.9 mph - N/A   Mostly Cloudy
5:54 PM 78.1 °F - 53.1 °F 42% 30.05 in 10.0 mi West 8.1 mph 16.1 mph N/A   Clear
6:54 PM 75.9 °F - 53.1 °F 45% 30.04 in 10.0 mi WSW 6.9 mph - N/A   Partly Cloudy
7:54 PM 73.0 °F - 55.0 °F 53% 30.04 in 10.0 mi SSW 3.5 mph - N/A   Clear
8:54 PM 70.0 °F - 55.0 °F 59% 30.02 in 10.0 mi SSW 3.5 mph - N/A   Clear
9:54 PM 68.0 °F - 55.0 °F 63% 30.03 in 10.0 mi SW 4.6 mph - N/A   Clear
10:54 PM 64.9 °F - 55.0 °F 70% 30.03 in 10.0 mi SSW 3.5 mph - N/A   Clear
11:54 PM 63.0 °F - 55.0 °F 75% 30.03 in 10.0 mi SW 4.6 mph - N/A   Mostly Cloudy